User: anonymous   Login
Location: Unspecified
(0.0000°N, 0.0000°E)
Time: 19:15:45
(UTC+00:00)
Language:

STARLINK-32204 - Orbit

View from above orbital plane
View from above orbital plane
View from above satellite
View from above satellite

Ground track
Ground track

The orbit is defined by the following mean orbital elements,

1 60584U          26145.19060536 +.00000000 +00000-0 +96048-4 0 00005
2 60584  53.1621 311.0069 0001315  87.6780 272.4373 15.34395932    01
Epoch (UTC): 25 May 2026 04:34:28
Eccentricity: 0.0001315
inclination: 53.1621°
perigee height: 462 km
apogee height: 464 km
right ascension of ascending node: 311.0069°
argument of perigee: 87.6780°
revolutions per day: 15.34395932
mean anomaly at epoch: 272.4373°

The dashed part of the orbit path shows where the satellite is in the earth's shadow,  

DLR